Location: Walton
(43.6794°N, 81.3017°W)
Time: 00:09:49
(UTC+00:00)

Cosmos 2180 Rocket - Pass Details

Date: 13 March 2026
Orbit: 952 x 1004 km, 82.9° (Epoch: 14 April)

Event Time Altitude Azimuth Distance (km) Brightness Sun altitude
Rises 10:08:43 0° 126° (SE) 3,681 8.1 -17.4°
Reaches altitude 10° 10:13:16 10° 95° (E) 2,727 8.0 -16.6°
Maximum altitude 10:15:11 12° 77° (ENE) 2,611 8.1 -16.2°
Drops below altitude 10° 10:17:07 10° 59° (ENE) 2,721 8.0 -15.9°
Sets 10:21:37 0° 29° (NNE) 3,662 8.1 -15.1°
